| time (UTC) | temp F | wind direction | speed MPH | gust MPH | rain 1hr in | rain 24hr in | rain mn in | humidity % | barometer mb |
| 20260506091237 | 44 | 336 | 2.0 | 5.0 | 0.00 | 0.00 | 0.00 | 49 | 1017.3 |
| 20260506090748 | 44 | 336 | 3.0 | 6.0 | 0.00 | 0.01 | 0.00 | 49 | 1017.3 |
| 20260506090231 | 45 | 340 | 3.0 | 8.0 | 0.00 | 0.01 | 0.00 | 48 | 1017.3 |
| 20260506090031 | 44 | 344 | 4.0 | 8.0 | 0.00 | 0.01 | 0.00 | 48 | 1017.4 |
| 20260506085738 | 45 | 351 | 4.0 | 8.0 | 0.00 | 0.01 | 0.00 | 48 | 1017.2 |
| 20260506085249 | 45 | 336 | 4.0 | 6.0 | 0.00 | 0.01 | 0.00 | 48 | 1017.2 |
| 20260506084739 | 45 | 345 | 3.0 | 5.0 | 0.00 | 0.01 | 0.00 | 48 | 1017.2 |
| 20260506084511 | 44 | 341 | 3.0 | 5.0 | 0.00 | 0.01 | 0.00 | 48 | 1017.3 |
| 20260506084310 | 45 | 348 | 3.0 | 5.0 | 0.00 | 0.01 | 0.00 | 48 | 1017.1 |
| 20260506083730 | 45 | 344 | 3.0 | 5.0 | 0.00 | 0.01 | 0.00 | 48 | 1017.0 |
| 20260506083242 | 45 | 338 | 3.0 | 5.0 | 0.00 | 0.01 | 0.00 | 48 | 1017.0 |
| 20260506083050 | 45 | 342 | 3.0 | 5.0 | 0.00 | 0.01 | 0.00 | 48 | 1017.2 |
| 20260506082723 | 45 | 333 | 3.0 | 5.0 | 0.00 | 0.01 | 0.00 | 48 | 1016.9 |
| 20260506082250 | 45 | 348 | 4.0 | 5.0 | 0.00 | 0.01 | 0.00 | 47 | 1016.9 |
| 20260506081741 | 45 | 341 | 4.0 | 5.0 | 0.00 | 0.01 | 0.00 | 47 | 1016.9 |
| 20260506081527 | 45 | 344 | 3.0 | 5.0 | 0.00 | 0.01 | 0.00 | 47 | 1017.0 |
| 20260506081254 | 45 | 343 | 3.0 | 5.0 | 0.00 | 0.01 | 0.00 | 47 | 1016.9 |
| 20260506080740 | 45 | 335 | 3.0 | 6.0 | 0.00 | 0.01 | 0.00 | 47 | 1016.9 |
| 20260506080222 | 46 | 336 | 3.0 | 5.0 | 0.00 | 0.01 | 0.00 | 46 | 1016.8 |
| 20260506073239 | 46 | 360 | 4.0 | 6.0 | 0.00 | 0.01 | 0.00 | 45 | 1016.5 |
| 20260506073023 | 46 | 350 | 3.0 | 5.0 | 0.00 | 0.01 | 0.00 | 45 | 1016.7 |
| 20260506072749 | 46 | 355 | 4.0 | 5.0 | 0.00 | 0.01 | 0.00 | 45 | 1016.6 |
| 20260506072240 | 47 | 348 | 4.0 | 6.0 | 0.00 | 0.01 | 0.00 | 45 | 1016.6 |
| 20260506071747 | 47 | 348 | 4.0 | 6.0 | 0.00 | 0.01 | 0.00 | 45 | 1016.6 |
| 20260506071505 | 46 | 355 | 4.0 | 6.0 | 0.00 | 0.01 | 0.00 | 45 | 1016.7 |
| 20260506071233 | 47 | 5 | 4.0 | 9.0 | 0.00 | 0.01 | 0.00 | 45 | 1016.6 |
| 20260506070743 | 47 | 355 | 4.0 | 9.0 | 0.00 | 0.01 | 0.00 | 45 | 1016.7 |
| 20260506070226 | 47 | 360 | 5.0 | 6.0 | 0.00 | 0.01 | 0.00 | 44 | 1016.6 |
| 20260506062230 | 48 | 355 | 4.0 | 8.0 | 0.00 | 0.01 | 0.00 | 43 | 1016.7 |
| 20260506061742 | 48 | 5 | 6.0 | 9.0 | 0.00 | 0.01 | 0.00 | 42 | 1016.6 |
| 20260506061535 | 47 | 5 | 4.0 | 9.0 | 0.00 | 0.01 | 0.00 | 42 | 1016.7 |
| 20260506061228 | 48 | 339 | 5.0 | 9.0 | 0.00 | 0.01 | 0.00 | 42 | 1016.7 |
| 20260506060740 | 48 | 329 | 5.0 | 9.0 | 0.00 | 0.01 | 0.00 | 42 | 1016.6 |
| 20260506060222 | 48 | 343 | 6.0 | 10.0 | 0.00 | 0.01 | 0.00 | 41 | 1016.5 |
| 20260506051240 | 49 | 355 | 6.0 | 12.0 | 0.00 | 0.01 | 0.00 | 40 | 1016.1 |
| 20260506050749 | 49 | 351 | 7.0 | 12.0 | 0.00 | 0.01 | 0.01 | 41 | 1015.9 |
| 20260506050233 | 49 | 328 | 7.0 | 11.0 | 0.00 | 0.01 | 0.01 | 41 | 1015.9 |
| 20260506050107 | 49 | 346 | 6.0 | 11.0 | 0.00 | 0.01 | 0.01 | 40 | 1016.0 |
| 20260506044733 | 50 | 344 | 6.0 | 10.0 | 0.00 | 0.01 | 0.01 | 40 | 1015.8 |
| 20260506044510 | 49 | 355 | 5.0 | 10.0 | 0.00 | 0.01 | 0.01 | 40 | 1015.7 |
| 20260506044242 | 50 | 355 | 6.0 | 10.0 | 0.00 | 0.01 | 0.01 | 40 | 1015.6 |
| 20260506043724 | 50 | 355 | 6.0 | 9.0 | 0.00 | 0.01 | 0.01 | 40 | 1015.7 |
| 20260506043235 | 50 | 344 | 8.0 | 11.0 | 0.00 | 0.01 | 0.01 | 40 | 1015.7 |
| 20260506043016 | 49 | 360 | 6.0 | 11.0 | 0.00 | 0.01 | 0.01 | 40 | 1015.7 |
| 20260506042748 | 50 | 360 | 8.0 | 11.0 | 0.00 | 0.01 | 0.01 | 40 | 1015.7 |
| 20260506042232 | 50 | 350 | 7.0 | 10.0 | 0.00 | 0.01 | 0.01 | 40 | 1015.6 |
| 20260506041744 | 50 | 348 | 5.0 | 9.0 | 0.00 | 0.01 | 0.01 | 40 | 1015.6 |
| 20260506041516 | 50 | 343 | 5.0 | 9.0 | 0.00 | 0.01 | 0.01 | 41 | 1015.6 |
| 20260506041229 | 50 | 347 | 6.0 | 9.0 | 0.00 | 0.01 | 0.01 | 40 | 1015.5 |
| 20260506040740 | 50 | 360 | 5.0 | 9.0 | 0.00 | 0.01 | 0.01 | 40 | 1015.4 |
| 20260506040247 | 50 | 342 | 5.0 | 9.0 | 0.00 | 0.01 | 0.01 | 40 | 1015.4 |
| 20260506040033 | 50 | 351 | 5.0 | 10.0 | 0.00 | 0.01 | 0.01 | 40 | 1015.4 |
| 20260506035731 | 51 | 355 | 5.0 | 10.0 | 0.00 | 0.01 | 0.01 | 40 | 1015.4 |
| 20260506035306 | 51 | 348 | 6.0 | 10.0 | 0.00 | 0.01 | 0.01 | 39 | 1015.4 |
| 20260506034725 | 51 | 333 | 7.0 | 10.0 | 0.00 | 0.01 | 0.01 | 39 | 1015.5 |
| 20260506034556 | 50 | 360 | 6.0 | 11.0 | 0.00 | 0.01 | 0.01 | 39 | 1015.5 |
| 20260506034237 | 51 | 350 | 6.0 | 11.0 | 0.00 | 0.01 | 0.01 | 39 | 1015.5 |
| 20260506033746 | 51 | 344 | 6.0 | 11.0 | 0.00 | 0.01 | 0.01 | 39 | 1015.4 |
| 20260506033230 | 51 | 345 | 7.0 | 11.0 | 0.00 | 0.01 | 0.01 | 38 | 1015.4 |
| 20260506033058 | 51 | 348 | 6.0 | 11.0 | 0.00 | 0.01 | 0.01 | 38 | 1015.4 |
| 20260506032737 | 51 | 345 | 7.0 | 10.0 | 0.00 | 0.01 | 0.01 | 38 | 1015.3 |
| 20260506032249 | 51 | 5 | 7.0 | 10.0 | 0.00 | 0.01 | 0.01 | 38 | 1015.3 |
| 20260506031738 | 51 | 343 | 7.0 | 10.0 | 0.00 | 0.01 | 0.01 | 38 | 1015.3 |
| 20260506031546 | 51 | 348 | 7.0 | 10.0 | 0.00 | 0.01 | 0.01 | 38 | 1015.2 |
| 20260506031224 | 52 | 360 | 7.0 | 11.0 | 0.00 | 0.01 | 0.01 | 38 | 1015.2 |
| 20260506030736 | 52 | 327 | 7.0 | 14.0 | 0.00 | 0.01 | 0.01 | 37 | 1015.2 |
| 20260506030248 | 52 | 5 | 10.0 | 14.0 | 0.00 | 0.01 | 0.01 | 37 | 1015.1 |
| 20260506030057 | 51 | 342 | 8.0 | 16.0 | 0.00 | 0.01 | 0.01 | 37 | 1015.1 |
| 20260506025732 | 52 | 355 | 8.0 | 16.0 | 0.00 | 0.01 | 0.01 | 37 | 1015.0 |
| 20260506025243 | 52 | 351 | 12.0 | 16.0 | 0.00 | 0.01 | 0.01 | 36 | 1014.9 |
| 20260506024721 | 52 | 355 | 12.0 | 16.0 | 0.00 | 0.01 | 0.01 | 36 | 1014.7 |
| 20260506024552 | 51 | 335 | 9.0 | 14.0 | 0.00 | 0.01 | 0.01 | 37 | 1014.7 |
| 20260506024254 | 52 | 345 | 8.0 | 14.0 | 0.00 | 0.01 | 0.01 | 37 | 1014.7 |
| 20260506023744 | 52 | 9 | 9.0 | 15.0 | 0.00 | 0.01 | 0.01 | 37 | 1014.7 |
| 20260506023230 | 52 | 336 | 10.0 | 15.0 | 0.00 | 0.01 | 0.01 | 37 | 1014.6 |
| 20260506023042 | 52 | 355 | 9.0 | 15.0 | 0.00 | 0.01 | 0.01 | 37 | 1014.6 |
| 20260506022744 | 52 | 345 | 9.0 | 15.0 | 0.00 | 0.01 | 0.01 | 37 | 1014.5 |
| 20260506022229 | 52 | 329 | 9.0 | 15.0 | 0.00 | 0.01 | 0.01 | 37 | 1014.4 |
| 20260506021739 | 52 | 14 | 10.0 | 15.0 | 0.00 | 0.01 | 0.01 | 37 | 1014.3 |
| 20260506021536 | 52 | 342 | 10.0 | 16.0 | 0.00 | 0.01 | 0.01 | 37 | 1014.3 |
| 20260506021247 | 53 | 5 | 11.0 | 16.0 | 0.00 | 0.01 | 0.01 | 37 | 1014.3 |
| 20260506020729 | 53 | 355 | 11.0 | 17.0 | 0.00 | 0.01 | 0.01 | 37 | 1014.3 |
| 20260506020238 | 53 | 346 | 11.0 | 18.0 | 0.00 | 0.01 | 0.01 | 36 | 1014.3 |
| 20260506020036 | 52 | 342 | 10.0 | 18.0 | 0.00 | 0.01 | 0.01 | 36 | 1014.2 |
| 20260506015749 | 53 | 343 | 12.0 | 17.0 | 0.00 | 0.01 | 0.01 | 36 | 1014.2 |
| 20260506015238 | 53 | 334 | 12.0 | 16.0 | 0.00 | 0.01 | 0.01 | 37 | 1014.0 |
| 20260506014723 | 53 | 13 | 10.0 | 14.0 | 0.00 | 0.01 | 0.01 | 37 | 1014.1 |
| 20260506014513 | 52 | 355 | 10.0 | 15.0 | 0.00 | 0.01 | 0.01 | 37 | 1014.0 |
| 20260506014237 | 53 | 335 | 8.0 | 15.0 | 0.00 | 0.01 | 0.01 | 38 | 1014.0 |
| 20260506013745 | 53 | 355 | 9.0 | 15.0 | 0.00 | 0.01 | 0.01 | 37 | 1013.9 |
| 20260506013228 | 53 | 348 | 9.0 | 18.0 | 0.00 | 0.01 | 0.01 | 37 | 1013.9 |
| 20260506013105 | 53 | 5 | 9.0 | 18.0 | 0.00 | 0.01 | 0.01 | 37 | 1013.9 |
| 20260506013006 | 53 | 355 | 9.0 | 18.0 | 0.00 | 0.01 | 0.01 | 37 | 1013.8 |
| 20260506012721 | 53 | 342 | 10.0 | 18.0 | 0.00 | 0.01 | 0.01 | 37 | 1013.9 |
| 20260506012235 | 54 | 360 | 12.0 | 17.0 | 0.00 | 0.01 | 0.01 | 36 | 1013.8 |
| 20260506011721 | 54 | 349 | 12.0 | 19.0 | 0.00 | 0.01 | 0.01 | 36 | 1013.7 |
| 20260506011517 | 53 | 320 | 12.0 | 19.0 | 0.00 | 0.01 | 0.01 | 36 | 1013.6 |
| 20260506011235 | 54 | 342 | 10.0 | 19.0 | 0.00 | 0.01 | 0.01 | 36 | 1013.7 |
| 20260506010745 | 54 | 331 | 11.0 | 19.0 | 0.00 | 0.01 | 0.01 | 36 | 1013.6 |
| 20260506010226 | 54 | 342 | 11.0 | 19.0 | 0.00 | 0.01 | 0.01 | 35 | 1013.6 |
| 20260506010041 | 54 | 360 | 13.0 | 22.0 | 0.00 | 0.01 | 0.01 | 35 | 1013.4 |
| 20260506005739 | 54 | 341 | 11.0 | 22.0 | 0.00 | 0.01 | 0.01 | 35 | 1013.5 |
| 20260506005221 | 54 | 348 | 12.0 | 22.0 | 0.00 | 0.01 | 0.01 | 35 | 1013.6 |
| 20260506004733 | 54 | 355 | 10.0 | 18.0 | 0.00 | 0.01 | 0.01 | 36 | 1013.5 |
| 20260506004525 | 54 | 333 | 11.0 | 18.0 | 0.00 | 0.01 | 0.01 | 35 | 1013.4 |
| 20260506004308 | 54 | 355 | 13.0 | 19.0 | 0.00 | 0.01 | 0.01 | 35 | 1013.4 |
| 20260506003729 | 55 | 344 | 14.0 | 21.0 | 0.00 | 0.01 | 0.01 | 35 | 1013.3 |
| 20260506003243 | 55 | 355 | 11.0 | 23.0 | 0.00 | 0.01 | 0.01 | 35 | 1013.2 |
| 20260506003011 | 54 | 360 | 14.0 | 23.0 | 0.00 | 0.01 | 0.01 | 35 | 1012.9 |
| 20260506002729 | 55 | 336 | 16.0 | 23.0 | 0.00 | 0.01 | 0.01 | 34 | 1013.2 |
| 20260506002305 | 55 | 360 | 12.0 | 22.0 | 0.00 | 0.01 | 0.01 | 35 | 1013.2 |
| 20260506001722 | 55 | 344 | 13.0 | 22.0 | 0.00 | 0.01 | 0.01 | 34 | 1013.2 |
| 20260506001549 | 55 | 313 | 16.0 | 22.0 | 0.00 | 0.01 | 0.01 | 34 | 1013.0 |
| 20260506001235 | 55 | 317 | 11.0 | 19.0 | 0.00 | 0.01 | 0.01 | 35 | 1013.3 |
| 20260506000745 | 55 | 5 | 14.0 | 19.0 | 0.00 | 0.01 | 0.01 | 34 | 1013.3 |
| 20260506000235 | 55 | 350 | 13.0 | 18.0 | 0.00 | 0.01 | 0.01 | 34 | 1013.2 |
| 20260506000011 | 55 | 333 | 13.0 | 21.0 | 0.00 | 0.01 | 0.01 | 35 | 1013.0 |
| 20260505235747 | 56 | 355 | 12.0 | 21.0 | 0.00 | 0.01 | 0.01 | 35 | 1013.1 |
| 20260505235234 | 56 | 350 | 14.0 | 21.0 | 0.00 | 0.01 | 0.01 | 34 | 1013.1 |
| 20260505234746 | 56 | 355 | 14.0 | 22.0 | 0.00 | 0.01 | 0.01 | 34 | 1013.0 |
| 20260505234532 | 56 | 5 | 14.0 | 26.0 | 0.00 | 0.01 | 0.01 | 35 | 1012.8 |
| 20260505234228 | 56 | 346 | 14.0 | 26.0 | 0.00 | 0.01 | 0.01 | 34 | 1013.0 |
| 20260505233738 | 57 | 330 | 19.0 | 26.0 | 0.00 | 0.01 | 0.01 | 34 | 1012.9 |
| 20260505233251 | 57 | 340 | 18.0 | 24.0 | 0.00 | 0.01 | 0.01 | 34 | 1012.8 |
| 20260505233027 | 56 | 327 | 16.0 | 21.0 | 0.00 | 0.01 | 0.01 | 34 | 1012.6 |
| 20260505232732 | 57 | 291 | 12.0 | 19.0 | 0.00 | 0.01 | 0.01 | 35 | 1012.7 |
| 20260505232244 | 57 | 327 | 12.0 | 17.0 | 0.00 | 0.01 | 0.01 | 35 | 1012.7 |
| 20260505231728 | 57 | 339 | 12.0 | 19.0 | 0.00 | 0.01 | 0.01 | 35 | 1012.7 |
| 20260505231519 | 56 | 338 | 11.0 | 19.0 | 0.00 | 0.01 | 0.01 | 35 | 1012.5 |
| 20260505231239 | 57 | 329 | 13.0 | 19.0 | 0.00 | 0.01 | 0.01 | 34 | 1012.6 |
| 20260505230747 | 57 | 326 | 10.0 | 19.0 | 0.00 | 0.01 | 0.01 | 34 | 1012.7 |
| 20260505230236 | 57 | 287 | 11.0 | 19.0 | 0.00 | 0.01 | 0.01 | 34 | 1012.8 |
| 20260505230042 | 57 | 355 | 12.0 | 19.0 | 0.00 | 0.01 | 0.01 | 34 | 1012.6 |
| 20260505225749 | 57 | 336 | 14.0 | 19.0 | 0.00 | 0.01 | 0.01 | 34 | 1012.8 |
| 20260505225231 | 57 | 338 | 12.0 | 18.0 | 0.00 | 0.01 | 0.01 | 35 | 1012.7 |
| 20260505224804 | 57 | 331 | 12.0 | 18.0 | 0.00 | 0.01 | 0.01 | 35 | 1012.7 |
| 20260505224532 | 57 | 355 | 12.0 | 18.0 | 0.00 | 0.01 | 0.01 | 34 | 1012.5 |
| 20260505224231 | 57 | 338 | 12.0 | 18.0 | 0.00 | 0.01 | 0.01 | 35 | 1012.7 |
| 20260505223742 | 58 | 319 | 10.0 | 17.0 | 0.00 | 0.01 | 0.01 | 35 | 1012.8 |
| 20260505223231 | 58 | 325 | 11.0 | 17.0 | 0.00 | 0.01 | 0.01 | 36 | 1012.7 |
| 20260505223021 | 58 | 292 | 10.0 | 17.0 | 0.00 | 0.01 | 0.01 | 35 | 1012.5 |
| 20260505222726 | 58 | 315 | 10.0 | 18.0 | 0.00 | 0.01 | 0.01 | 35 | 1012.7 |
| 20260505222239 | 58 | 306 | 11.0 | 18.0 | 0.00 | 0.01 | 0.01 | 35 | 1012.7 |
| 20260505221749 | 58 | 312 | 12.0 | 18.0 | 0.00 | 0.01 | 0.01 | 35 | 1012.7 |
| 20260505221530 | 58 | 326 | 11.0 | 18.0 | 0.00 | 0.01 | 0.01 | 36 | 1012.4 |
| 20260505221233 | 58 | 5 | 8.0 | 12.0 | 0.00 | 0.01 | 0.01 | 37 | 1012.7 |
| 20260505220740 | 58 | 355 | 7.0 | 12.0 | 0.00 | 0.01 | 0.01 | 36 | 1012.7 |
| 20260505220222 | 58 | 325 | 9.0 | 19.0 | 0.00 | 0.01 | 0.01 | 36 | 1012.7 |
| 20260505220033 | 57 | 290 | 9.0 | 19.0 | 0.00 | 0.01 | 0.01 | 37 | 1012.4 |
| 20260505215735 | 58 | 308 | 10.0 | 19.0 | 0.00 | 0.01 | 0.01 | 36 | 1012.7 |
| 20260505215242 | 58 | 333 | 12.0 | 18.0 | 0.00 | 0.01 | 0.01 | 36 | 1012.7 |
| 20260505214725 | 58 | 355 | 12.0 | 22.0 | 0.00 | 0.01 | 0.01 | 35 | 1012.8 |
| 20260505214558 | 57 | 314 | 12.0 | 22.0 | 0.00 | 0.01 | 0.01 | 35 | 1012.4 |
| 20260505214238 | 58 | 332 | 14.0 | 22.0 | 0.00 | 0.01 | 0.01 | 36 | 1012.8 |
| 20260505213723 | 58 | 317 | 11.0 | 19.0 | 0.00 | 0.01 | 0.01 | 36 | 1012.8 |
| 20260505213236 | 58 | 341 | 13.0 | 19.0 | 0.00 | 0.01 | 0.01 | 35 | 1012.9 |
| 20260505213056 | 58 | 331 | 13.0 | 19.0 | 0.00 | 0.01 | 0.01 | 36 | 1012.5 |
| 20260505212731 | 58 | 331 | 14.0 | 19.0 | 0.00 | 0.01 | 0.01 | 35 | 1012.8 |
| 20260505212225 | 59 | 335 | 8.0 | 19.0 | 0.00 | 0.01 | 0.01 | 38 | 1012.9 |
| 20260505211737 | 58 | 321 | 9.0 | 20.0 | 0.00 | 0.01 | 0.01 | 38 | 1013.0 |
| 20260505211545 | 58 | 5 | 13.0 | 20.0 | 0.00 | 0.01 | 0.01 | 36 | 1012.7 |
| 20260505211224 | 58 | 329 | 14.0 | 18.0 | 0.00 | 0.01 | 0.01 | 36 | 1013.0 |
| 20260505210731 | 59 | 327 | 13.0 | 18.0 | 0.00 | 0.01 | 0.01 | 36 | 1013.1 |
| 20260505210244 | 59 | 323 | 12.0 | 23.0 | 0.00 | 0.01 | 0.01 | 36 | 1013.1 |
| 20260505210058 | 59 | 346 | 12.0 | 23.0 | 0.00 | 0.01 | 0.01 | 36 | 1012.7 |
| 20260505205727 | 59 | 327 | 14.0 | 23.0 | 0.00 | 0.01 | 0.01 | 35 | 1013.0 |
| 20260505205239 | 59 | 326 | 14.0 | 21.0 | 0.00 | 0.01 | 0.01 | 35 | 1013.0 |
| 20260505204723 | 59 | 5 | 9.0 | 21.0 | 0.00 | 0.01 | 0.01 | 36 | 1013.2 |
| 20260505204605 | 59 | 319 | 14.0 | 21.0 | 0.00 | 0.01 | 0.01 | 34 | 1012.8 |
| 20260505204500 | 59 | 336 | 14.0 | 21.0 | 0.00 | 0.01 | 0.01 | 35 | 1012.7 |
| 20260505204238 | 60 | 317 | 12.0 | 21.0 | 0.00 | 0.01 | 0.01 | 37 | 1013.1 |
| 20260505203748 | 59 | 317 | 12.0 | 18.0 | 0.00 | 0.01 | 0.01 | 36 | 1013.2 |
| 20260505203229 | 59 | 342 | 12.0 | 19.0 | 0.00 | 0.01 | 0.01 | 35 | 1013.2 |
| 20260505203015 | 59 | 355 | 11.0 | 20.0 | 0.00 | 0.01 | 0.01 | 37 | 1012.8 |
| 20260505202737 | 59 | 345 | 12.0 | 20.0 | 0.00 | 0.01 | 0.01 | 35 | 1013.2 |
| 20260505202246 | 60 | 325 | 14.0 | 20.0 | 0.00 | 0.01 | 0.01 | 35 | 1013.3 |
| 20260505201731 | 60 | 336 | 11.0 | 21.0 | 0.00 | 0.01 | 0.01 | 36 | 1013.3 |
| 20260505201510 | 59 | 329 | 13.0 | 22.0 | 0.00 | 0.01 | 0.01 | 35 | 1013.0 |
| 20260505201244 | 60 | 325 | 14.0 | 22.0 | 0.00 | 0.01 | 0.01 | 36 | 1013.4 |
| 20260505200733 | 60 | 312 | 13.0 | 22.0 | 0.00 | 0.01 | 0.01 | 36 | 1013.5 |
| 20260505200245 | 61 | 360 | 9.0 | 16.0 | 0.00 | 0.01 | 0.01 | 37 | 1013.4 |
| 20260505200031 | 60 | 35 | 7.0 | 14.0 | 0.00 | 0.01 | 0.01 | 40 | 1012.9 |
| 20260505195735 | 60 | 348 | 8.0 | 14.0 | 0.00 | 0.01 | 0.01 | 38 | 1013.5 |
| 20260505195243 | 60 | 360 | 11.0 | 15.0 | 0.00 | 0.01 | 0.01 | 35 | 1013.5 |
| 20260505194725 | 59 | 321 | 11.0 | 17.0 | 0.00 | 0.01 | 0.01 | 35 | 1013.6 |
| 20260505194544 | 59 | 315 | 12.0 | 17.0 | 0.00 | 0.01 | 0.01 | 37 | 1013.2 |
| 20260505194237 | 59 | 282 | 10.0 | 17.0 | 0.00 | 0.01 | 0.01 | 38 | 1013.7 |
| 20260505193748 | 59 | 347 | 12.0 | 23.0 | 0.00 | 0.01 | 0.01 | 35 | 1013.6 |
| 20260505193230 | 59 | 5 | 13.0 | 23.0 | 0.00 | 0.01 | 0.01 | 36 | 1013.6 |
| 20260505193048 | 59 | 17 | 13.0 | 23.0 | 0.00 | 0.01 | 0.01 | 36 | 1013.2 |
| 20260505192801 | 60 | 332 | 9.0 | 15.0 | 0.00 | 0.01 | 0.01 | 37 | 1013.7 |
| 20260505192224 | 60 | 261 | 10.0 | 16.0 | 0.00 | 0.01 | 0.01 | 38 | 1013.7 |
| 20260505191736 | 60 | 338 | 12.0 | 16.0 | 0.00 | 0.01 | 0.01 | 37 | 1013.8 |
| 20260505191527 | 59 | 323 | 11.0 | 17.0 | 0.00 | 0.01 | 0.01 | 37 | 1013.2 |
| 20260505191243 | 59 | 344 | 10.0 | 18.0 | 0.00 | 0.01 | 0.01 | 39 | 1013.8 |
| 20260505190723 | 59 | 338 | 13.0 | 18.0 | 0.00 | 0.01 | 0.01 | 37 | 1013.8 |
| 20260505190234 | 59 | 347 | 9.0 | 13.0 | 0.00 | 0.01 | 0.01 | 40 | 1013.9 |
| 20260505190027 | 59 | 302 | 7.0 | 13.0 | 0.00 | 0.01 | 0.01 | 40 | 1013.3 |
| 20260505185745 | 59 | 348 | 5.0 | 10.0 | 0.00 | 0.01 | 0.01 | 40 | 1013.9 |
| 20260505185226 | 60 | 290 | 7.0 | 10.0 | 0.00 | 0.01 | 0.01 | 42 | 1013.9 |
| 20260505184758 | 60 | 17 | 4.0 | 13.0 | 0.00 | 0.01 | 0.01 | 44 | 1013.9 |
| 20260505184511 | 60 | 5 | 5.0 | 13.0 | 0.00 | 0.01 | 0.01 | 43 | 1013.4 |
| 20260505184251 | 61 | 300 | 8.0 | 13.0 | 0.00 | 0.01 | 0.01 | 42 | 1014.1 |
| 20260505183728 | 60 | 308 | 7.0 | 18.0 | 0.00 | 0.01 | 0.01 | 42 | 1014.0 |
| 20260505183238 | 59 | 355 | 7.0 | 21.0 | 0.00 | 0.01 | 0.01 | 40 | 1014.2 |
| 20260505183016 | 59 | 355 | 11.0 | 21.0 | 0.00 | 0.01 | 0.01 | 39 | 1013.5 |
| 20260505182722 | 60 | 338 | 15.0 | 21.0 | 0.00 | 0.01 | 0.01 | 40 | 1014.2 |
| 20260505182235 | 59 | 325 | 10.0 | 18.0 | 0.00 | 0.01 | 0.01 | 41 | 1014.2 |
| 20260505181746 | 60 | 350 | 10.0 | 18.0 | 0.00 | 0.01 | 0.01 | 40 | 1014.3 |
| 20260505181554 | 59 | 344 | 8.0 | 18.0 | 0.00 | 0.01 | 0.01 | 44 | 1013.7 |
| 20260505181238 | 58 | 318 | 4.0 | 11.0 | 0.00 | 0.01 | 0.01 | 45 | 1014.3 |
| 20260505180748 | 60 | 317 | 8.0 | 17.0 | 0.00 | 0.01 | 0.01 | 41 | 1014.3 |
| 20260505180230 | 59 | 325 | 12.0 | 17.0 | 0.00 | 0.01 | 0.01 | 44 | 1014.3 |
| 20260505180106 | 58 | 290 | 7.0 | 15.0 | 0.00 | 0.01 | 0.01 | 46 | 1013.7 |
| 20260505175737 | 58 | 313 | 4.0 | 13.0 | 0.00 | 0.01 | 0.01 | 50 | 1014.4 |
| 20260505175249 | 58 | 302 | 7.0 | 14.0 | 0.00 | 0.01 | 0.01 | 46 | 1014.3 |
| 20260505174732 | 57 | 11 | 9.0 | 14.0 | 0.00 | 0.01 | 0.01 | 43 | 1014.2 |
| 20260505174604 | 57 | 28 | 10.0 | 14.0 | 0.00 | 0.01 | 0.01 | 42 | 1013.6 |
| 20260505174307 | 58 | 360 | 11.0 | 15.0 | 0.00 | 0.01 | 0.01 | 44 | 1014.3 |
| 20260505173729 | 58 | 326 | 8.0 | 16.0 | 0.00 | 0.01 | 0.01 | 43 | 1014.3 |
| 20260505173242 | 59 | 340 | 9.0 | 15.0 | 0.00 | 0.01 | 0.01 | 44 | 1014.4 |
| 20260505173042 | 57 | 320 | 6.0 | 15.0 | 0.00 | 0.01 | 0.01 | 45 | 1013.9 |
| 20260505172723 | 58 | 15 | 6.0 | 15.0 | 0.00 | 0.01 | 0.01 | 45 | 1014.6 |
| 20260505172229 | 56 | 13 | 8.0 | 15.0 | 0.00 | 0.01 | 0.01 | 43 | 1014.6 |
| 20260505171744 | 56 | 324 | 8.0 | 15.0 | 0.00 | 0.01 | 0.01 | 47 | 1014.6 |
| 20260505171541 | 56 | 329 | 3.0 | 15.0 | 0.00 | 0.01 | 0.01 | 46 | 1013.9 |
| 20260505171230 | 57 | 321 | 9.0 | 15.0 | 0.00 | 0.01 | 0.01 | 44 | 1014.7 |
| 20260505170738 | 57 | 302 | 6.0 | 12.0 | 0.00 | 0.01 | 0.01 | 50 | 1014.6 |
| 20260505170221 | 56 | 325 | 8.0 | 12.0 | 0.00 | 0.01 | 0.01 | 49 | 1014.7 |
| 20260505170041 | 55 | 305 | 8.0 | 12.0 | 0.00 | 0.01 | 0.01 | 48 | 1013.9 |
| 20260505165750 | 55 | 321 | 8.0 | 12.0 | 0.00 | 0.01 | 0.01 | 50 | 1014.6 |
| 20260505165240 | 55 | 328 | 8.0 | 12.0 | 0.00 | 0.01 | 0.01 | 51 | 1014.6 |
| 20260505164723 | 55 | 319 | 8.0 | 13.0 | 0.00 | 0.01 | 0.01 | 52 | 1014.6 |
| 20260505164524 | 54 | 325 | 6.0 | 14.0 | 0.00 | 0.01 | 0.01 | 53 | 1013.9 |
| 20260505164232 | 55 | 318 | 10.0 | 14.0 | 0.00 | 0.01 | 0.01 | 53 | 1014.6 |
| 20260505163743 | 54 | 327 | 9.0 | 14.0 | 0.00 | 0.01 | 0.01 | 53 | 1014.7 |
| 20260505163226 | 54 | 336 | 8.0 | 12.0 | 0.00 | 0.01 | 0.01 | 54 | 1014.6 |
| 20260505163026 | 53 | 308 | 7.0 | 12.0 | 0.00 | 0.01 | 0.01 | 56 | 1013.9 |
| 20260505162739 | 53 | 355 | 9.0 | 12.0 | 0.00 | 0.01 | 0.01 | 55 | 1014.4 |
| 20260505162223 | 53 | 320 | 8.0 | 11.0 | 0.00 | 0.01 | 0.01 | 57 | 1014.4 |
| 20260505161732 | 54 | 348 | 7.0 | 12.0 | 0.00 | 0.01 | 0.01 | 57 | 1014.3 |
| 20260505161536 | 53 | 355 | 6.0 | 12.0 | 0.00 | 0.01 | 0.01 | 57 | 1013.5 |
| 20260505161245 | 53 | 334 | 9.0 | 12.0 | 0.00 | 0.01 | 0.01 | 54 | 1014.3 |
| 20260505160726 | 53 | 331 | 6.0 | 10.0 | 0.00 | 0.01 | 0.01 | 58 | 1014.3 |
| 20260505160231 | 53 | 345 | 6.0 | 10.0 | 0.00 | 0.01 | 0.01 | 60 | 1014.3 |
| 20260505153306 | 52 | 355 | 8.0 | 11.0 | 0.00 | 0.01 | 0.01 | 55 | 1014.2 |
| 20260505153056 | 52 | 334 | 6.0 | 10.0 | 0.00 | 0.01 | 0.01 | 57 | 1013.4 |
| 20260505152729 | 53 | 344 | 4.0 | 8.0 | 0.00 | 0.01 | 0.01 | 57 | 1014.2 |
| 20260505152243 | 53 | 317 | 4.0 | 6.0 | 0.00 | 0.01 | 0.01 | 58 | 1014.0 |
| 20260505151724 | 52 | 294 | 4.0 | 7.0 | 0.00 | 0.01 | 0.01 | 58 | 1014.0 |
| 20260505151604 | 52 | 355 | 4.0 | 8.0 | 0.00 | 0.01 | 0.01 | 56 | 1013.1 |
| 20260505151237 | 52 | 340 | 4.0 | 9.0 | 0.00 | 0.01 | 0.01 | 56 | 1013.9 |
| 20260505150747 | 52 | 348 | 5.0 | 10.0 | 0.00 | 0.01 | 0.01 | 55 | 1013.7 |
| 20260505150237 | 52 | 22 | 6.0 | 10.0 | 0.00 | 0.01 | 0.01 | 54 | 1013.7 |
| 20260505140230 | 50 | 334 | 4.0 | 8.0 | 0.00 | 0.01 | 0.01 | 61 | 1013.5 |
| 20260505130233 | 49 | 315 | 2.0 | 4.0 | 0.00 | 0.01 | 0.01 | 69 | 1012.8 |
| 20260505124735 | 48 | 323 | 3.0 | 6.0 | 0.00 | 0.01 | 0.01 | 71 | 1012.6 |
| 20260505124540 | 48 | 319 | 3.0 | 6.0 | 0.00 | 0.01 | 0.01 | 71 | 1011.6 |
| 20260505124248 | 48 | 327 | 4.0 | 6.0 | 0.00 | 0.01 | 0.01 | 72 | 1012.4 |
| 20260505123728 | 48 | 326 | 4.0 | 6.0 | 0.00 | 0.01 | 0.01 | 74 | 1012.3 |
| 20260505123241 | 48 | 338 | 4.0 | 6.0 | 0.00 | 0.01 | 0.01 | 74 | 1012.0 |
| 20260505123035 | 47 | 325 | 4.0 | 8.0 | 0.00 | 0.01 | 0.01 | 75 | 1011.0 |
| 20260505122723 | 48 | 337 | 4.0 | 8.0 | 0.00 | 0.01 | 0.01 | 75 | 1011.8 |
| 20260505122235 | 48 | 332 | 4.0 | 8.0 | 0.00 | 0.01 | 0.01 | 76 | 1011.8 |
| 20260505121801 | 48 | 351 | 5.0 | 8.0 | 0.00 | 0.01 | 0.01 | 78 | 1011.8 |
| 20260505121518 | 47 | 360 | 3.0 | 6.0 | 0.00 | 0.01 | 0.01 | 79 | 1010.9 |
| 20260505121254 | 48 | 333 | 3.0 | 4.0 | 0.00 | 0.01 | 0.01 | 79 | 1011.8 |
| 20260505120742 | 48 | 341 | 3.0 | 4.0 | 0.00 | 0.01 | 0.01 | 80 | 1011.7 |
| 20260505120225 | 47 | 341 | 2.0 | 3.0 | 0.00 | 0.01 | 0.01 | 80 | 1011.6 |
| 20260505120005 | 47 | 355 | 1.0 | 3.0 | 0.00 | 0.01 | 0.01 | 80 | 1010.6 |
| 20260505115737 | 47 | 355 | 2.0 | 3.0 | 0.00 | 0.01 | 0.01 | 80 | 1011.6 |
| 20260505115247 | 47 | 355 | 2.0 | 4.0 | 0.00 | 0.01 | 0.01 | 81 | 1011.5 |
| 20260505114734 | 47 | 355 | 3.0 | 4.0 | 0.00 | 0.01 | 0.01 | 81 | 1011.3 |
| 20260505114531 | 47 | 355 | 2.0 | 5.0 | 0.00 | 0.01 | 0.01 | 81 | 1010.4 |
| 20260505114248 | 47 | 355 | 3.0 | 5.0 | 0.00 | 0.01 | 0.01 | 81 | 1011.2 |
| 20260505113730 | 47 | 5 | 4.0 | 5.0 | 0.00 | 0.01 | 0.01 | 81 | 1011.2 |
| 20260505113242 | 47 | 355 | 4.0 | 5.0 | 0.00 | 0.01 | 0.01 | 81 | 1011.2 |
| 20260505113030 | 47 | 360 | 3.0 | 5.0 | 0.00 | 0.01 | 0.01 | 81 | 1010.2 |
| 20260505112726 | 47 | 5 | 4.0 | 5.0 | 0.00 | 0.01 | 0.01 | 81 | 1011.2 |
| 20260505112236 | 47 | 5 | 4.0 | 5.0 | 0.00 | 0.01 | 0.01 | 80 | 1011.1 |
| 20260505111749 | 47 | 360 | 4.0 | 4.0 | 0.00 | 0.01 | 0.01 | 80 | 1011.2 |
| 20260505111525 | 47 | 360 | 3.0 | 4.0 | 0.00 | 0.01 | 0.01 | 80 | 1010.3 |
| 20260505111242 | 47 | 360 | 3.0 | 4.0 | 0.00 | 0.01 | 0.01 | 80 | 1011.3 |
| 20260505110749 | 47 | 253 | 3.0 | 4.0 | 0.00 | 0.01 | 0.01 | 79 | 1011.2 |
| 20260505110233 | 48 | 253 | 3.0 | 3.0 | 0.00 | 0.01 | 0.01 | 79 | 1011.2 |
| 20260505101721 | 48 | 253 | 2.0 | 3.0 | 0.00 | 0.01 | 0.01 | 79 | 1011.6 |
| 20260505101533 | 48 | 253 | 2.0 | 3.0 | 0.00 | 0.01 | 0.01 | 79 | 1010.6 |
| 20260505101234 | 48 | 253 | 2.0 | 3.0 | 0.00 | 0.01 | 0.01 | 79 | 1011.5 |
| 20260505100744 | 48 | 253 | 2.0 | 4.0 | 0.00 | 0.01 | 0.01 | 80 | 1011.5 |
| 20260505100229 | 49 | 253 | 3.0 | 4.0 | 0.00 | 0.01 | 0.01 | 80 | 1011.6 |
| 20260505100033 | 48 | 253 | 2.0 | 4.0 | 0.00 | 0.01 | 0.01 | 79 | 1010.7 |
| 20260505095742 | 49 | 267 | 3.0 | 4.0 | 0.00 | 0.01 | 0.01 | 79 | 1011.6 |
| 20260505095225 | 49 | 268 | 3.0 | 4.0 | 0.00 | 0.01 | 0.01 | 80 | 1011.6 |
| 20260505094733 | 49 | 240 | 3.0 | 4.0 | 0.00 | 0.01 | 0.01 | 79 | 1011.6 |
| 20260505094541 | 48 | 229 | 1.0 | 4.0 | 0.00 | 0.01 | 0.01 | 79 | 1010.6 |
| 20260505094248 | 49 | 229 | 2.0 | 4.0 | 0.00 | 0.01 | 0.01 | 79 | 1011.6 |
| 20260505093728 | 49 | 243 | 2.0 | 4.0 | 0.00 | 0.01 | 0.01 | 78 | 1011.5 |
| 20260505093240 | 49 | 275 | 2.0 | 4.0 | 0.00 | 0.01 | 0.01 | 77 | 1011.3 |
| 20260505093042 | 49 | 270 | 2.0 | 4.0 | 0.00 | 0.01 | 0.01 | 77 | 1010.4 |
| 20260505092723 | 49 | 296 | 3.0 | 4.0 | 0.00 | 0.01 | 0.01 | 77 | 1011.3 |
| 20260505092233 | 49 | 280 | 2.0 | 4.0 | 0.00 | 0.01 | 0.01 | 76 | 1011.2 |
| 20260505091744 | 49 | 303 | 3.0 | 4.0 | 0.00 | 0.01 | 0.01 | 76 | 1011.1 |
| 20260505091527 | 49 | 307 | 3.0 | 4.0 | 0.00 | 0.01 | 0.01 | 76 | 1010.0 |